AirNav   Pilot Hours Calculator
 
 1503 users online  

CL96 Vaca Valley Hospital Heliport
Vacaville, California, USA

GOING TO VACAVILLE?


FAA INFORMATION EFFECTIVE 02 JANUARY 2020

Location

FAA Identifier: CL96
Lat/Long: 38-21-19.1700N 121-57-04.1500W
38-21.319500N 121-57.069167W
38.3553250,-121.9511528
(estimated)
Elevation: 110 ft. / 34 m (estimated)
Variation: 16E (1985)
From city: 2 miles E of VACAVILLE, CA
Time zone: UTC -8 (UTC -7 during Daylight Saving Time)
Zip code: 95687

Heliport Operations

Heliport use: Private use, MEDICAL
Activation date: 08/1987
Control tower: no
ARTCC: OAKLAND CENTER
FSS: RANCHO MURIETA FLIGHT SERVICE STATION
Attendance: CONTINUOUS
Wind indicator: yes
Segmented circle: no
Lights: FOR PERI LGTS CALL 707-624-7072; IF UNA, CALL 707-624-7813.

Heliport Communications

WX ASOS at VCB (1.5 nm N): 134.75 (707-448-1594)
WX AWOS-3 at EDU (13 nm NE): 119.025 (530-754-6839)
WX AWOS-3 at DWA (14 nm N): 125.775 (530-750-2759)
WX AWOS-AV at O88 (15 nm SE): 127.075 (707-374-5396)
WX ASOS at APC (18 nm SW): PHONE 707-252-7916

Nearby radio navigation aids

VOR radial/distance  VOR name  Freq  Var
CCRr356/19.1CONCORD VOR/DME117.0017E
SACr237/19.5SACRAMENTO VORTAC115.2017E
SGDr045/22.5SCAGGS ISLAND VORTAC112.1017E
MCCr217/31.8MC CLELLAN VOR/DME109.2017E
OAKr002/39.9OAKLAND VOR/DME116.8017E

Heliport Services

Runway Information

Helipad H1

Dimensions: 40 x 40 ft. / 12 x 12 m
Surface: concrete
Runway edge lights: PERI
Runway edge markings: RED H IN WHITE CROSS.
Operational restrictions: APCH-DEP PATHS 073 DEG AND 163 DEG MAG; BOTH CLEAR +08:1.
Latitude: 38-21.319500N
Longitude: 121-57.069167W
Elevation: 110.0 ft.
Traffic pattern: leftleft

Heliport Ownership and Management from official FAA records

Ownership: Privately-owned
Owner: VACA VALLEY HOSPITAL
1000 NUT TREE ROAD
VACAVILLE, CA 95687
Phone 707-624-7000
Manager: GREG DUNCAN
1000 NUT TREE ROAD
VACAVILLE, CA 95687
Phone 707-646-5660
ADDITIONAL CONTACT: HENRY TRUDEL 707-646-5665 HENRY.TRUDEL@NORTHBAY.ORG

Additional Remarks

FOR CD CTC OAKLAND ARTCC AT 510-745-3380.

Instrument Procedures

There are no published instrument procedures at CL96.

Some nearby airports with instrument procedures:

KVCB - Nut Tree Airport (1 nm N)
KSUU - Travis Air Force Base (6 nm S)
KEDU - University Airport (13 nm NE)
KDWA - Yolo County Airport (14 nm N)
O88 - Rio Vista Municipal Airport (15 nm SE)
KAPC - Napa County Airport (18 nm SW)
O41 - Watts-Woodland Airport (19 nm N)
 
Loc | Ops | Rwys | IFR | FBO | Links
Com | Nav | Svcs | Stats | Notes

Sonoma Jet Center
 
Area around CL96 (Vaca Valley Hospital Heliport)
 
Road maps at: MapQuest Bing Google
 
Aerial photo
No photo
 
Sectional chart

 
Airport distance calculator
Flying to Vaca Valley Hospital Heliport? Find the distance to fly.

From to CL96

Sunrise and sunset
Times for 23-Jan-2020
 Local
(UTC-8)
 Zulu
(UTC)
Morning civil twilight06:5214:52
Sunrise07:2115:21
Sunset17:1901:19
Evening civil twilight17:4701:47

Current date and time
Zulu (UTC)  23-Jan-2020 14:26:55
Local (UTC-8)  23-Jan-2020 06:26:55
 
METAR
KVCB 
2nm N 
231353Z AUTO 00000KT 10SM CLR 06/04 A3026 RMK AO2 SLP245 T00560044
KSUU 
6nm S 
231358Z AUTO 00000KT 10SM CLR 05/03 A3024 RMK AO2 SLP247 T00450027 $
KEDU 
13nm NE 
231415Z AUTO 32003KT 10SM CLR 07/07 A3026 RMK AO1
KAPC 
18nm SW 
231354Z AUTO 03003KT 10SM CLR 06/06 A3024 RMK AO2 SLP229 T00610056
TAF
KSUU 
6nm S 
231214Z 2312/2417 VRB06KT 6000 BR BKN220 QNH3025INS TEMPO 2312/2314 1600 BR BECMG 2313/2314 VRB06KT 0400 FG BKN200 QNH3024INS TEMPO 2314/2318 1600 BR BECMG 2317/2318 VRB06KT 9999 NSW SCT050 QNH3010INS TX15/2323Z TN03/2315Z
NOTAMs
Click for the latest NOTAMs
NOTAMs are issued by the DoD/FAA and will open in a separate window not controlled by AirNav.

 

 
 

Would you like to see your business listed on this page?

 If your business provides an interesting product or service to pilots, flight crews, aircraft, or users of the Vaca Valley Hospital Heliport, you should consider listing it here.  To start the listing process, click on the button below
 
Add a business
 

Other Pages about Vaca Valley Hospital Heliport

Update a link
 
Copyright © AirNav, LLC. All rights reserved. Privacy Policy  Contact